Weather History for Wolf Point, MT

Change the Weather History Date:

Saturday, March 30, 2013

  Actual Average Record
Temperature  
Mean Temperature 37 °F -  
Max Temperature 48 °F 51 °F 75 °F (2012)
Min Temperature 25 °F 23 °F 18 °F (2008)
Degree Days  
Heating Degree Days 28    
Cooling Degree Days 0    
Moisture  
Dew Point 28 °F    
Average Humidity 85    
Maximum Humidity 100    
Minimum Humidity 50    
Precipitation  
Precipitation 0.02 in 0.02 in 0.18 in (2006)
Month to date precipitation 0.52 0.44  
Year to date precipitation 0.72 0.96  
Sea Level Pressure  
Sea Level Pressure 30.12 in    
Wind  
Wind Speed 3 mph (West)    
Max Wind Speed 21 mph    
Max Gust Speed 26 mph    
Visibility 5 miles    
Events Fog , Rain    
T = Trace of Precipitation, MM = Missing Value Source: NWS Daily Summary

Daily Weather History Graph

Daily Weather History Graph

Search for Another Location

Airport:

Trip Planner

Search our weather history database for the weather conditions in past years. The results will help you decide how hot, cold, wet, or windy it might be!

Date:

Astronomy

Mar. 30, 2013 Rise Set
Actual Time 6:43 AM MDT 7:30 PM MDT
Civil Twilight 6:12 AM MDT 8:01 PM MDT
Nautical Twilight 5:35 AM MDT 8:39 PM MDT
Astronomical Twilight 4:55 AM MDT 9:18 PM MDT
Moon 11:59 PM MDT (3/30) 8:23 AM MDT (3/30)
Length of Visible Light 13h 48m
Length of Day
12h 46m
Waning Gibbous, 86% of the Moon is Illuminated
Mar 30
Waning Gibbous
Apr 2
Last Quarter
Apr 10
New
Apr 18
First Quarter
Apr 25
Full

Hourly Weather History & Observations

Time (MDT) Temp. Windchill Dew Point Humidity Pressure Visibility Wind Dir Wind Speed Gust Speed Precip Events Conditions
12:53 AM 30.0 °F 26.5 °F 28.0 °F 92% 30.13 in 8.0 mi WSW 3.5 mph - N/A   Scattered Clouds
1:33 AM 30.2 °F - 28.4 °F 93% 30.07 in 2.0 mi Calm Calm - N/A   Partly Cloudy
1:53 AM 28.9 °F 25.2 °F 27.0 °F 92% 30.14 in 1.5 mi WSW 3.5 mph - N/A   Partly Cloudy
2:03 AM 28.4 °F 24.6 °F 26.6 °F 93% 30.07 in 0.8 mi WSW 3.5 mph - N/A   Mostly Cloudy
2:30 AM 28.4 °F - 26.6 °F 93% 30.08 in 1.0 mi Calm Calm - N/A   Partly Cloudy
2:35 AM 28.4 °F - 26.6 °F 93% 30.08 in 2.5 mi Calm Calm - N/A   Partly Cloudy
2:43 AM 28.4 °F - 26.6 °F 93% 30.08 in 3.0 mi Calm Calm - N/A   Clear
2:53 AM 27.0 °F - 26.1 °F 96% 30.14 in 3.0 mi Calm Calm - N/A   Clear
2:57 AM 26.6 °F - 24.8 °F 93% 30.08 in 1.8 mi Calm Calm - N/A   Clear
3:00 AM 26.6 °F - 26.6 °F 100% 30.08 in 0.8 mi Calm Calm - N/A   Clear
3:19 AM 26.6 °F - 26.6 °F 100% 30.08 in 1.0 mi Calm Calm - N/A   Mist
3:33 AM 26.6 °F - 24.8 °F 93% 30.08 in 0.2 mi Calm Calm - N/A Fog Light Freezing Fog
3:53 AM 27.0 °F - 25.0 °F 92% 30.14 in 0.8 mi Calm Calm - N/A   Mist
3:55 AM 26.6 °F - 24.8 °F 93% 30.08 in 1.5 mi Calm Calm - N/A   Mostly Cloudy
3:57 AM 26.6 °F - 24.8 °F 93% 30.08 in 3.0 mi Calm Calm - N/A   Mostly Cloudy
4:10 AM 26.6 °F - 24.8 °F 93% 30.08 in 1.5 mi Calm Calm - N/A   Overcast
4:12 AM 26.6 °F - 24.8 °F 93% 30.08 in 0.8 mi Calm Calm - N/A   Mist
4:53 AM 25.0 °F - 24.1 °F 96% 30.14 in 0.5 mi Calm Calm - N/A Fog Light Freezing Fog
5:31 AM 26.6 °F 22.6 °F 24.8 °F 93% 30.08 in 1.5 mi WSW 3.5 mph - N/A   Scattered Clouds
5:39 AM 24.8 °F 20.5 °F 23.0 °F 93% 30.08 in 2.5 mi WSW 3.5 mph - N/A   Partly Cloudy
5:49 AM 26.6 °F - 23.0 °F 86% 30.08 in 4.0 mi Calm Calm - N/A   Clear
5:53 AM 26.1 °F - 24.1 °F 92% 30.14 in 4.0 mi Calm Calm - N/A   Clear
6:53 AM 26.1 °F 20.5 °F 24.1 °F 92% 30.14 in 6.0 mi WSW 4.6 mph - N/A   Clear
7:37 AM 26.6 °F 22.6 °F 24.8 °F 93% 30.08 in 7.0 mi SW 3.5 mph - N/A   Partly Cloudy
7:48 AM 28.4 °F 22.2 °F 26.6 °F 93% 30.08 in 1.0 mi WSW 5.8 mph - N/A   Mist
7:53 AM 28.9 °F 23.9 °F 27.0 °F 92% 30.14 in 0.2 mi SW 4.6 mph - N/A Fog Light Freezing Fog
8:53 AM 30.9 °F - 30.0 °F 96% 30.15 in 0.2 mi Calm Calm - N/A Fog Light Freezing Fog
9:02 AM 30.2 °F - 30.2 °F 100% 30.08 in 1.2 mi Calm Calm - N/A   Overcast
9:08 AM 30.2 °F - 30.2 °F 100% 30.08 in 3.0 mi Calm Calm - N/A   Mostly Cloudy
9:18 AM 32.0 °F 27.5 °F 30.2 °F 93% 30.09 in 4.0 mi NW 4.6 mph - N/A   Scattered Clouds
9:53 AM 32.0 °F 27.5 °F 30.0 °F 92% 30.16 in 9.0 mi SW 4.6 mph - N/A   Clear
10:53 AM 36.0 °F 32.1 °F 32.0 °F 86% 30.17 in 10.0 mi West 4.6 mph - N/A   Overcast
11:53 AM 43.0 °F 35.7 °F 30.9 °F 62% 30.19 in 10.0 mi NNW 15.0 mph - N/A   Mostly Cloudy
12:53 PM 41.0 °F 35.2 °F 32.0 °F 70% 30.20 in 10.0 mi North 9.2 mph - N/A   Overcast
1:35 PM 39.2 °F 35.9 °F 33.8 °F 81% 30.11 in 2.5 mi SW 4.6 mph - 0.02 in Rain Rain
1:42 PM 39.2 °F 35.9 °F 35.6 °F 87% 30.11 in 4.0 mi SSW 4.6 mph - 0.02 in Rain Light Rain
1:53 PM 41.0 °F 36.4 °F 36.0 °F 82% 30.17 in 10.0 mi SSW 6.9 mph - 0.02 in   Mostly Cloudy
2:53 PM 45.0 °F 40.6 °F 37.9 °F 76% 30.17 in 10.0 mi SW 8.1 mph - N/A   Clear
3:20 PM 48.2 °F - 35.6 °F 62% 30.11 in 10.0 mi NW 20.7 mph 26.5 mph N/A   Clear
3:53 PM 46.9 °F - 34.0 °F 61% 30.17 in 10.0 mi NW 20.7 mph - N/A   Clear
4:53 PM 45.0 °F 37.1 °F 34.0 °F 65% 30.18 in 10.0 mi NW 19.6 mph - N/A   Clear
5:53 PM 43.0 °F 37.7 °F 30.9 °F 62% 30.19 in 10.0 mi NW 9.2 mph - N/A   Clear
6:53 PM 39.0 °F 32.8 °F 28.0 °F 65% 30.19 in 10.0 mi NNW 9.2 mph - N/A   Clear
7:53 PM 36.0 °F 33.3 °F 27.0 °F 70% 30.19 in 10.0 mi North 3.5 mph - N/A   Clear
8:53 PM 34.0 °F - 27.0 °F 75% 30.19 in 10.0 mi Calm Calm - N/A   Clear
9:53 PM 36.0 °F - 23.0 °F 59% 30.19 in 10.0 mi Calm Calm - N/A   Mostly Cloudy
10:53 PM 36.0 °F 30.3 °F 19.0 °F 50% 30.18 in 10.0 mi Variable 6.9 mph - N/A   Partly Cloudy
11:53 PM 33.1 °F 28.7 °F 21.0 °F 61% 30.15 in 10.0 mi ENE 4.6 mph - N/A   Partly Cloudy